Regional Weather Roundup
Issued by NWS

Home | Current Version | Previous Version | Graphics & Text | Print | Product List | Glossary On
Versions: 1 2 3 4 5 6 7 8 9 10 11 12 13 14 15 16 17 18 19 20 21 22 23 24 25 26 27 28 29 30 31 32 33 34 35 36 37 38 39 40 41 42 43 44 45 46 47 48 49 50
000
ASUS43 KMKX 260221
RWRWI

WISCONSIN REGIONAL WEATHER ROUNDUP
NATIONAL WEATHER SERVICE MILWAUKEE/SULLIVAN WI
800 PM CST SAT FEB 25 2017

NOTE: "FAIR" INDICATES FEW OR NO CLOUDS BELOW 12,000 FEET WITH NO
SIGNIFICANT WEATHER AND/OR OBSTRUCTIONS TO VISIBILITY.

WIZ001-002-006>008-014>016-023>028-260300-
NORTHWEST WISCONSIN

CITY           SKY/WX    TMP DP  RH WIND       PRES   REMARKS
SUPERIOR ARPT  CLOUDY    29  19  66 SW12      29.77S WCI  19
ASHLAND        PTCLDY    24  12  60 S7        29.78F WCI  16
HAYWARD        CLOUDY    27  14  58 SW8       29.78F WCI  19
SIREN          MOCLDY    29  17  61 SW8       29.79F WCI  21
CUMBERLAND     CLOUDY    28  18  64 SW10      29.81S WCI  19
RICE LAKE      CLOUDY    29  17  62 CALM      29.84S
CHETEK         CLOUDY    28  16  61 SW8       29.83F WCI  19
LADYSMITH      CLOUDY    25  13  59 S9        29.83F WCI  15
EAU CLAIRE     CLEAR     22  15  75 SW12      29.87F WCI  10
MENOMONIE      PTCLDY    25  17  72 S9        29.87F WCI  15
NEW RICHMOND   CLOUDY    28  19  70 SW13G18   29.84S WCI  17
OSCEOLA        PTCLDY    31  20  64 S15       29.85F WCI  20
$$

WIZ003>005-009-010-017-018-260300-
NORTH CENTRAL WISCONSIN

CITY           SKY/WX    TMP DP  RH WIND       PRES   REMARKS
MANITOWISH WTR CLOUDY    12  11  98 SW3       29.77S
ARBOR VITAE    PTCLDY    17   9  70 SW3         N/A
WOODRUFF       PTCLDY    17   9  70 SW3         N/A
RHINELANDER    CLEAR     14   5  67 SW7       29.79S WCI   4
EAGLE RIVER    MOCLDY     6   2  84 CALM      29.76S
LAND O LAKES   PTCLDY    13   8  83 SW3       29.77S
PHILLIPS       PTCLDY    19   9  65 SW5       29.79S WCI  12
TOMAHAWK       CLEAR     16   8  70 CALM      29.81S
MEDFORD        PTCLDY    17   6  62 SW7       29.83S WCI   8
MERRILL        NOT AVBL
$$

WIZ029-030-035-036-043>047-260300-
CENTRAL WISCONSIN

CITY           SKY/WX    TMP DP  RH WIND       PRES   REMARKS
WAUSAU         CLEAR     19   7  59 SW9       29.84F WCI   8
MOSINEE        CLEAR     16   7  67 SW7       29.87S WCI   6
MARSHFIELD     CLEAR     17   6  62 SW9       29.86S WCI   6
STEVENS POINT  CLEAR     18   7  62 SW5       29.89F WCI  11
WAUPACA        CLEAR     18   9  66 SW5       29.92R WCI  11
WAUTOMA        NOT AVBL
WISC RAPIDS    CLEAR     19   9  65 SW7       29.91S WCI  10
CAMP DOUGLAS   CLEAR     18   8  64 SW7       29.93S WCI   9
$$

WIZ011>013-019>022-031-037>040-048>050-260300-
NORTHEAST WISCONSIN

CITY           SKY/WX    TMP DP  RH WIND       PRES   REMARKS
ANTIGO         CLEAR     16   6  64 W10       29.82R WCI   4
SHAWANO        CLEAR     20   9  60 SW5       29.89R WCI  14
OCONTO         CLEAR     17   8  67 SW6       29.88R WCI   8
STURGEON BAY   CLEAR     17  10  74 SW8       29.88R WCI   7
GREEN BAY      CLEAR     19   9  65 SW9       29.90R WCI   8
MANITOWOC      CLEAR     17   9  70 W8        29.92R WCI   7
APPLETON       PTCLDY    19   5  53 SW8       29.88S WCI   9
CLINTONVILLE   CLEAR     19   7  58 W7        29.89S WCI  10
OSHKOSH        CLEAR     20   8  60 W8        29.92R WCI  10
$$

WIZ032>034-041-042-053>061-260300-
SOUTHWEST WISCONSIN

CITY           SKY/WX    TMP DP  RH WIND       PRES   REMARKS
LA CROSSE      CLOUDY    24  14  65 SW13      29.96F WCI  12
SPARTA         CLEAR     18  10  70 S3        29.95F
VIROQUA        CLEAR     19  13  76 W10       29.94S WCI   7
BOSCOBEL       CLEAR     24  13  62 SW7       30.01R WCI  16
PRAIRIE DU CHI CLEAR     23  13  66 W7        30.01F WCI  15
PLATTEVILLE    CLEAR     20  15  82 W7        30.00S WCI  11
$$

WIZ056-057-062-063-064-067-068-260300-
SOUTH CENTRAL WISCONSIN

CITY           SKY/WX    TMP DP  RH WIND       PRES   REMARKS
REEDSBURG      CLEAR     20  11  67 SW5       29.96R WCI  14
BARABOO/DELLS  CLEAR     19  11  69 SW5       29.95S WCI  12
LONE ROCK      CLEAR     23  13  65 W8        30.00R WCI  14
MINERAL POINT  CLEAR     21  18  86 CALM      29.98R
MADISON        MOCLDY    21  14  74 CALM      29.97R
MIDDLETON      CLEAR     21  15  79 W5        29.97S WCI  15
WATERTOWN      CLEAR     19  12  74 SW3       29.96R
MONROE         CLEAR     23  16  74 W15       29.98R WCI  10
JANESVILLE     CLEAR     23  16  74 W7        29.98R WCI  15
$$

WIZ051-052-058>065-066-070>072-260300-
SOUTHEAST WISCONSIN

CITY           SKY/WX    TMP DP  RH WIND       PRES   REMARKS
MILWAUKEE      PTCLDY    24  10  55 W7        29.96R WCI  16
WAUKESHA       CLEAR     19  10  68 W10       29.96R WCI   8
MILWAUKEE/TIMM CLEAR     21  10  63 W12       29.96R WCI   9
RACINE         CLEAR     23  11  60 W8        29.98R WCI  14
KENOSHA        CLEAR     21  13  71 W8        29.97R WCI  11
FOND DU LAC    CLEAR     16   7  67 S6        29.94R WCI   7
SHEBOYGAN      CLEAR     19  10  68 W14       29.92R WCI   6
WEST BEND      CLEAR     19  14  79 W5        29.94R WCI  13
JUNEAU         CLEAR     16  11  80 SW3       29.96R
$$

LSZ147-162-260300-
LAKE SUPERIOR

STATION/POSITION TIME  TEMP    WIND        PRES    WAVE
                       AIR SEA DIR/SP/G            HT/PER
                 (UTC) (F)     (DEG/KT/KT) (MB)    (FT/S)
DEVILS ISLAND    0200   27     210/ 11/ 13 1008.6F
PORT WING        0140   25     190/  5/  6 1008.1F
SAXON HARBOR     0040   20     200/  2/  2 1009.1S
$$

LMZ867-665-643>646-260300-
LAKE MICHIGAN

STATION/POSITION TIME  TEMP    WIND        PRES    WAVE
                       AIR SEA DIR/SP/G            HT/PER
                 (UTC) (F)     (DEG/KT/KT) (MB)    (FT/S)
NORTHPORT PIER   0130   22      CALM  /  1 1010.8R
SISTER BAY       0135   20        CALM       N/A
KEWAUNEE LAKESHO 0154   19     270/  8/ 13 1011.8R
SHEBOYGAN LAKESH 0200   21     270/ 12/ 16 1014.3R
PORT WASHINGTON  0130   22     270/  8/ 14 1014.9R
MILWAUKEE LAKESH 0200   24     280/  9/ 13   N/A
KENOSHA   LAKESH 0200   24     280/  8/ 12 1015.2
$$

TC  - TEMPERATURE IN CELSIUS
VSB - VISIBILITY IN STATUTE MILES
WCI - WIND CHILL INDEX
HX  - HEAT INDEX




USA.gov is the U.S. government's official web portal to all federal, state and local government web resources and services.